User: anonymous   Login
Location: ActonStarParty
(42.4766°N, 71.4538°W)
Time: 07:12:11
(UTC-04:00)
Language:

Cosmos 1300 - Orbit

View from above orbital plane
View from above orbital plane
View from above satellite
View from above satellite

Ground track
Ground track

The orbit data is extracted from the following two-line orbital elements,

1 12785U 81082A   17291.17624855  .00000422  00000-0  19810-4 0  9991
2 12785  82.5017 311.6917 0002166 126.2687 275.2994 15.16886085970498
Epoch (UTC): 18 October 2017 04:13:47
Eccentricity: 0.0002166
inclination: 82.5017°
perigee height: 514 km
apogee height: 517 km
right ascension of ascending node: 311.6917°
argument of perigee: 126.2687°
revolutions per day: 15.16886085
mean anomaly at epoch: 275.2994°
orbit number at epoch: 97049

The dashed part of the orbit path shows where the satellite is in the earth's shadow,  

DLR